Weather History for KMFI - April, 2014

Change the Weather History Date:

Wednesday, April 30, 2014

  Actual Average Record
Temperature  
Mean Temperature 44 °F -  
Max Temperature 50 °F 64 °F 85 °F (1952)
Min Temperature 39 °F 38 °F 12 °F (1956)
Degree Days  
Heating Degree Days 22    
Moisture  
Dew Point 42 °F    
Average Humidity 92    
Maximum Humidity 97    
Minimum Humidity 86    
Precipitation  
Precipitation 0.03 in - - ()
Sea Level Pressure  
Sea Level Pressure 29.65 in    
Wind  
Wind Speed 5 mph (SE)    
Max Wind Speed 10 mph    
Max Gust Speed -    
Visibility 4 miles    
Events Fog , Rain    
Averages and records for this station are not official NWS values.
T = Trace of Precipitation, MM = Missing Value Source: NWS Daily Summary

Daily Weather History Graph

Daily Weather History Graph

Search for Another Location

Airport or City:

Trip Planner

Search our weather history database for the weather conditions in past years. The results will help you decide how hot, cold, wet, or windy it might be!

Date:

Astronomy

Apr. 30, 2014 Rise Set
Actual Time 5:52 AM CDT 8:04 PM CDT
Civil Twilight 5:20 AM CDT 8:36 PM CDT
Nautical Twilight 4:40 AM CDT 9:16 PM CDT
Astronomical Twilight 3:57 AM CDT 10:00 PM CDT
Moon 6:52 AM CDT (4/30) 9:45 PM CDT (4/30)
Length of Visible Light 15h 16m
Length of Day
14h 11m
New Moon, 2% of the Moon is Illuminated
Apr 30
New Moon
May 6
First Quarter
May 14
Full
May 21
Last Quarter
May 28
New

Hourly Weather History & Observations

Time (CDT) Temp. Windchill Dew Point Humidity Pressure Visibility Wind Dir Wind Speed Gust Speed Precip Events Conditions
12:28 AM 41.0 °F 37.1 °F 39.0 °F 93% 29.62 in 2.5 mi NNE 5.8 mph - N/A   Overcast
12:54 AM 41.0 °F 36.4 °F 39.0 °F 93% 29.65 in 2.0 mi NE 6.9 mph - N/A   Overcast
1:28 AM 41.0 °F 36.4 °F 39.0 °F 93% 29.62 in 1.8 mi NE 6.9 mph - N/A   Overcast
1:54 AM 41.0 °F 37.1 °F 39.0 °F 93% 29.65 in 1.2 mi NE 5.8 mph - N/A   Overcast
2:54 AM 41.0 °F 37.1 °F 39.0 °F 93% 29.65 in 1.2 mi NNE 5.8 mph - N/A   Overcast
3:54 AM 39.9 °F 35.8 °F 39.0 °F 97% 29.65 in 1.5 mi NNE 5.8 mph - N/A   Overcast
4:25 AM 41.0 °F 38.0 °F 39.0 °F 93% 29.62 in 2.0 mi NNE 4.6 mph - 0.00 in Rain Light Rain
4:40 AM 41.0 °F 38.0 °F 39.0 °F 93% 29.62 in 1.8 mi NNE 4.6 mph - 0.00 in Rain Light Rain
4:54 AM 41.0 °F 37.1 °F 39.0 °F 93% 29.65 in 1.8 mi NNE 5.8 mph - 0.00 in Rain Light Rain
5:18 AM 41.0 °F 38.0 °F 39.0 °F 93% 29.62 in 1.0 mi NNE 4.6 mph - 0.00 in Rain Light Rain
5:31 AM 41.0 °F 38.0 °F 39.0 °F 93% 29.62 in 1.2 mi NNE 4.6 mph - 0.00 in Rain Light Rain
6:06 AM 41.0 °F 38.0 °F 39.0 °F 93% 29.63 in 1.0 mi NNE 4.6 mph - 0.00 in Rain Light Rain
6:24 AM 41.0 °F 37.1 °F 39.0 °F 93% 29.63 in 0.5 mi NNE 5.8 mph - 0.00 in Fog , Rain Light Rain
6:54 AM 41.0 °F 38.0 °F 39.9 °F 96% 29.66 in 1.0 mi NNE 4.6 mph - 0.00 in Rain Light Rain
7:01 AM 41.0 °F 37.1 °F 39.9 °F 96% 29.63 in 1.8 mi NNE 5.8 mph - 0.00 in Rain Light Rain
7:09 AM 41.0 °F 38.0 °F 39.9 °F 96% 29.63 in 2.5 mi NNE 4.6 mph - 0.00 in Rain Light Rain
7:19 AM 41.0 °F 36.4 °F 39.9 °F 96% 29.63 in 3.0 mi NNE 6.9 mph - 0.00 in Rain Light Rain
7:50 AM 42.8 °F 38.6 °F 39.2 °F 87% 29.63 in 2.5 mi NNE 6.9 mph - 0.00 in Rain Light Rain
7:54 AM 42.1 °F 38.4 °F 39.9 °F 92% 29.66 in 2.5 mi NE 5.8 mph - 0.00 in Rain Light Rain
8:03 AM 42.1 °F 38.4 °F 39.9 °F 92% 29.63 in 3.0 mi NE 5.8 mph - 0.00 in Rain Light Rain
8:54 AM 43.0 °F 39.5 °F 41.0 °F 93% 29.66 in 3.0 mi NE 5.8 mph - 0.00 in Rain Light Rain
10:34 AM 46.0 °F 44.8 °F 44.1 °F 93% 29.64 in 7.0 mi ENE 3.5 mph - 0.00 in Rain Light Rain
10:54 AM 46.0 °F 44.8 °F 44.1 °F 93% 29.67 in 5.0 mi ENE 3.5 mph - 0.00 in Rain Light Rain
11:35 AM 46.9 °F - 44.1 °F 90% 29.65 in 2.5 mi Calm Calm - 0.00 in Rain Light Rain
11:49 AM 46.4 °F - 44.6 °F 93% 29.66 in 4.0 mi Calm Calm - 0.00 in Rain Light Rain
11:50 AM 46.9 °F - 45.0 °F 93% 29.68 in 4.0 mi Calm Calm - 0.00 in Rain Light Rain
12:38 PM 48.0 °F - 44.1 °F 86% 29.65 in 10.0 mi Calm Calm - 0.00 in Rain Light Rain
12:54 PM 48.9 °F - 45.0 °F 86% 29.67 in 8.0 mi Calm Calm - 0.00 in Rain Light Rain
1:07 PM 48.9 °F - 45.0 °F 86% 29.65 in 10.0 mi Calm Calm - 0.00 in Rain Light Rain
1:15 PM 48.9 °F - 45.0 °F 86% 29.65 in 10.0 mi South 3.5 mph - 0.00 in Rain Light Rain
1:17 PM 48.9 °F - 45.0 °F 86% 29.65 in 10.0 mi Variable 3.5 mph - 0.00 in Rain Light Rain
1:31 PM 48.9 °F - 45.0 °F 86% 29.65 in 10.0 mi South 3.5 mph - 0.00 in Rain Light Rain
1:54 PM 48.9 °F - 45.0 °F 86% 29.68 in 10.0 mi SSW 4.6 mph - 0.00 in Rain Light Rain
2:54 PM 48.0 °F - 46.0 °F 93% 29.68 in 10.0 mi South 6.9 mph - 0.00 in   Overcast
3:35 PM 48.9 °F - 45.0 °F 86% 29.65 in 10.0 mi South 8.1 mph - N/A   Overcast
4:06 PM 46.9 °F - 44.1 °F 90% 29.65 in 10.0 mi SW 6.9 mph - N/A   Overcast
4:18 PM 46.9 °F - 44.1 °F 90% 29.66 in 10.0 mi SSW 8.1 mph - N/A   Overcast
4:29 PM 46.9 °F - 44.1 °F 90% 29.66 in 10.0 mi SW 6.9 mph - N/A   Overcast
4:54 PM 46.9 °F - 44.1 °F 90% 29.68 in 10.0 mi SW 4.6 mph - 0.00 in   Overcast
5:36 PM 46.9 °F - 44.1 °F 90% 29.66 in 10.0 mi SW 5.8 mph - N/A   Overcast
5:54 PM 46.9 °F - 43.0 °F 86% 29.68 in 5.0 mi SW 5.8 mph - N/A   Overcast
6:15 PM 46.9 °F - 44.1 °F 90% 29.66 in 6.0 mi SW 5.8 mph - 0.00 in Rain Light Rain
6:33 PM 46.0 °F 43.1 °F 44.1 °F 93% 29.66 in 2.5 mi SW 5.8 mph - 0.00 in Rain Light Rain
6:41 PM 46.0 °F 43.1 °F 44.1 °F 93% 29.66 in 4.0 mi SW 5.8 mph - 0.00 in   Overcast
6:54 PM 46.0 °F 43.9 °F 44.1 °F 93% 29.68 in 10.0 mi WSW 4.6 mph - 0.00 in   Overcast
7:06 PM 46.0 °F 44.8 °F 44.1 °F 93% 29.66 in 10.0 mi SW 3.5 mph - N/A   Overcast
7:24 PM 46.0 °F 44.8 °F 44.1 °F 93% 29.66 in 2.5 mi WSW 3.5 mph - N/A   Overcast
7:33 PM 46.0 °F 44.8 °F 44.1 °F 93% 29.66 in 1.0 mi SSW 3.5 mph - 0.00 in Rain Light Rain
8:01 PM 45.0 °F 43.5 °F 43.0 °F 93% 29.66 in 2.5 mi SSE 3.5 mph - 0.00 in Rain Light Rain
8:20 PM 45.0 °F 41.8 °F 43.0 °F 93% 29.65 in 1.8 mi SSW 5.8 mph - 0.01 in Rain Light Rain
8:39 PM 45.0 °F 42.6 °F 43.0 °F 93% 29.66 in 2.0 mi SSW 4.6 mph - 0.02 in Rain Light Rain
8:42 PM 45.0 °F 43.5 °F 43.0 °F 93% 29.66 in 1.8 mi South 3.5 mph - 0.02 in Rain Light Rain
8:51 PM 44.6 °F 43.1 °F 42.8 °F 93% 29.66 in 2.0 mi SSE 3.5 mph - 0.02 in Rain Light Rain
9:12 PM 45.0 °F 42.6 °F 43.0 °F 93% 29.65 in 1.5 mi SSE 4.6 mph - 0.03 in Rain Rain
9:28 PM 44.1 °F 39.5 °F 42.1 °F 93% 29.65 in 2.0 mi SSE 8.1 mph - 0.03 in Rain Light Rain
9:54 PM 44.1 °F 40.1 °F 42.1 °F 93% 29.67 in 2.5 mi SSE 6.9 mph - 0.03 in   Overcast
10:22 PM 43.0 °F 38.2 °F 42.1 °F 97% 29.65 in 1.8 mi SSE 8.1 mph - 0.00 in   Overcast
10:31 PM 43.0 °F 37.7 °F 41.0 °F 93% 29.65 in 2.0 mi SE 9.2 mph - 0.00 in   Overcast
10:42 PM 43.0 °F 38.2 °F 41.0 °F 93% 29.64 in 5.0 mi SE 8.1 mph - 0.00 in Rain Light Rain
10:54 PM 43.0 °F 38.2 °F 41.0 °F 93% 29.66 in 8.0 mi SE 8.1 mph - 0.00 in   Overcast
11:37 PM 43.0 °F 37.2 °F 41.0 °F 93% 29.63 in 2.5 mi ESE 10.4 mph - N/A   Overcast
11:54 PM 42.1 °F 36.6 °F 41.0 °F 96% 29.65 in 1.8 mi ESE 9.2 mph - N/A   Overcast